テナグラ彗星

C/2013 C2 ( Tenagra )

English version
Home page
Updated on November 28, 2025

---------------------------------------------------------------------

・ プロフィール

発見日 2013年2月14日
発見光度 19.0等
発見者 P. R. Holvorcem, M. Schwartz (Tenagra Observatory)

・ 写真集

・ 軌道要素

Epoch 2015 Sept. 15.0 TT = JDT 2457280.5
T 2015 Aug. 30.30069 TT                                 Rudenko
q   9.1309410            (2000.0)            P               Q
n   0.01531407     Peri.  308.79106     -0.91034984     +0.24124802
a  16.0598793      Node   247.52497     -0.16367494     -0.95614869
e   0.4314440      Incl.   21.33906     -0.38009695     -0.16606949
P  64.4
From 493 observations 2013 Feb. 14-2019 June 29, mean residual 0".7.

・ 光度変化

        m1 =   -1.0 + 5 logΔ +  15.0 log r  [    ,3684]  (              〜2025年 9月30日)
        m1 = -105.5 + 5 logΔ + 100   log r  [3684,    ]  (2025年 9月30日〜              )

---------------------------------------------------------------------

軌道要素はM.P.E.C. 2021-F20に掲載されたものです。
光度グラフはComet for Windowsで作成したものです。

---------------------------------------------------------------------

Copyright(C) Seiichi Yoshida (comet@aerith.net). All rights reserved.